SCP
0 0 0 0 0 0 0 0 0 0 0 0 0 0 0 0 0 0 0 0 0 0 0 0 0 0 0 0 0 0 0 0 0 0 0 0 0 0 0 0 0 0 0 0 0 0 0 0 0
0 0 0 0 0 0 0 0 0 0 0 0 0 0 0 0 0 0 0 0 0 0 0 0 0 0 0 0 0 0 0 0 0 0 0 0 0 0 0 0 0 0 0 0 0 0 0 0 0
0 0 0 0 0 0 0 0 0 0 0 0 0 0 0 0 0 0 0 0 0 0 0 0 0 0 0 0 0 0 0 0 0 0 0 0 0 0 0 0 0 0 0 0 0 0 0 0 0
0 0 0 0 0 0 0 0 0 0 0 0 0 0 0 0 0 0 0 0 0 0 0 0 0 0 0 0 0 0 0 0 0 0 0 0 0 0 0 0 0 0 0 0 0 0 0 0 0
0 0 0 0 0 0 0 0 0 0 0 0 0 0 0 0 0 0 0 0 0 0 0 0 0 0 0 0 0 0 0 0 0 0 0 0 0 0 0 0 0 0 0 0 0 0 0 0 0
0 0 0 0 0 0 0 0 0 0 0 0 0 0 0 0 0 0 0 0 0 0 0 0 0 0 0 0 0 0 0 0 0 0 0 0 0 0 0 0 0 0 0 0 0 0 0 0 0
-0 -0 0 0 0 0 0 0 0 0 0 0 0 0 0 1 1 1 0 0 0 0 0 0 0 0 0 0 0 0 0 0 0 0 0 0 0 0 0 0 0 0 0 0 0 0 0 0 0
-0 -0 0 0 0 0 0 0 0 0 0 0 0 0 1 1 1 1 1 0 0 0 0 0 0 0 0 0 0 0 0 0 0 0 0 0 0 0 0 0 0 0 0 0 0 0 0 0 0
-0 -0 0 0 0 0 0 0 0 0 0 0 0 1 1 1 1 1 1 1 0 0 0 0 0 0 0 0 0 0 0 0 0 0 0 0 0 0 0 0 0 0 0 0 0 0 0 0 0
0 0 0 0 0 0 0 0 0 0 0 0 0 1 1 1 1 1 1 1 1 1 0 0 0 0 0 0 0 0 0 0 0 0 0 0 0 0 0 0 0 0 0 0 0 0 0 0 0
0 0 0 0 0 0 0 0 0 0 0 0 0 1 1 1 1 1 1 1 1 1 1 1 1 1 0 0 0 0 0 0 0 0 0 0 0 0 0 0 0 0 0 0 0 0 0 0 0
0 0 0 0 0 0 0 0 0 0 0 0 0 1 1 1 1 1 1 1 1 1 1 1 1 1 1 1 0 0 0 0 0 0 0 0 0 0 0 0 0 0 0 0 0 0 0 0 0
0 0 0 0 0 0 0 0 0 0 0 0 1 1 1 1 1 1 1 1 1 1 1 1 1 1 1 1 1 0 0 0 0 0 0 0 0 0 0 0 0 0 0 0 0 0 0 0 0
0 0 0 0 0 0 0 0 0 0 0 0 1 1 1 1 1 1 1 1 1 1 1 1 1 1 1 1 1 0 0 0 0 0 0 0 0 0 0 0 0 0 0 0 0 0 0 0 0
0 0 0 0 0 0 0 0 0 0 0 0 1 1 1 1 1 1 1 1 1 1 1 1 1 1 1 1 1 0 0 0 0 0 0 0 0 0 0 0 0 0 0 0 0 0 0 0 0
0 0 0 0 0 0 0 0 0 0 0 0 0 1 1 1 1 1 1 1 1 1 1 1 1 1 1 1 1 0 0 0 0 0 0 0 0 0 0 0 0 0 0 0 0 0 0 0 0
0 0 0 0 0 0 0 0 0 0 0 0 0 0 1 1 1 1 1 1 1 1 1 1 1 1 1 1 1 0 0 0 0 0 0 0 0 0 0 0 0 0 0 0 0 0 0 0 0
0 0 0 0 0 0 0 0 0 0 0 0 0 0 0 0 0 0 1 1 1 1 1 1 1 1 1 1 1 0 0 0 0 0 0 0 0 0 0 0 0 0 0 0 0 0 0 0 0
0 0 0 0 0 0 0 0 0 0 0 0 0 0 0 0 0 0 0 0 0 1 1 1 1 1 1 1 1 0 0 0 0 0 0 0 0 0 0 0 0 0 0 0 0 0 0 0 0
0 0 0 0 0 0 0 0 0 0 0 0 0 0 0 0 0 0 0 0 0 0 1 1 1 1 1 1 1 1 0 0 0 0 0 0 0 0 0 0 0 0 0 0 0 0 0 0 0
0 0 0 0 0 0 0 0 0 0 0 0 0 0 0 0 0 0 0 0 0 0 0 0 0 1 0 0 0 0 0 0 0 0 0 0 0 0 0 0 0 0 0 0 0 0 0 0 0
0 0 0 0 0 0 0 0 0 0 0 0 0 0 0 0 0 0 0 0 0 0 0 0 0 0 0 0 0 0 0 0 0 0 0 0 0 0 0 0 0 0 0 0 0 0 0 0 0
0 0 0 0 0 0 0 0 0 0 0 0 0 0 0 0 0 0 0 0 0 0 0 0 0 0 0 0 0 0 0 0 0 0 0 0 0 0 0 0 0 0 0 0 0 0 0 0 0
0 0 0 0 0 0 0 0 0 0 0 0 0 0 0 0 0 0 0 0 0 0 0 0 0 0 0 0 0 0 0 0 0 0 0 0 0 0 0 0 0 0 0 0 0 0 0 0 0
0 0 0 0 0 0 0 0 0 0 0 0 0 0 0 0 0 0 0 0 0 0 0 0 0 0 0 0 0 0 0 0 0 0 0 0 0 0 0 0 0 0 0 0 0 0 0 0 0
0 0 0 0 0 0 0 0 0 0 0 0 0 0 0 0 0 0 0 0 0 0 0 0 0 0 0 0 0 0 0 0 0 0 0 0 0 0 0 0 0 0 0 0 0 0 0 0 0
0 0 0 0 0 0 0 0 0 0 0 0 0 0 0 0 0 0 0 0 0 0 0 0 0 0 0 0 0 0 0 0 0 0 0 0 0 0 0 0 0 0 0 0 0 0 0 0 0
0 0 0 0 0 0 0 0 0 0 0 0 0 0 0 0 0 0 0 0 0 0 0 0 0 0 0 0 0 0 0 0 0 0 0 0 0 0 0 0 0 0 0 0 0 0 0 0 0
0 0 0 0 0 0 0 0 0 0 0 0 0 0 0 0 0 0 0 0 0 0 0 0 0 0 0 0 0 0 0 0 0 0 0 0 0 0 0 0 0 0 0 0 0 0 0 0 0
0 0 0 0 0 0 0 0 0 0 0 0 0 0 0 0 0 0 0 0 0 0 0 0 0 0 0 0 0 0 0 0 0 0 0 0 0 0 0 0 0 0 0 0 0 0 0 0 0
Wind_Speed
11 9 6 5 8 6 1 3 1 2 2 3 3 2 2 2 1 5 8 17 18 19 19 18 14 15 15 15 15 15 14 14 14 13 12 11 11 10 10 9 9 9 9 9 9 10 10 10 10
8 6 6 7 8 3 3 2 1 2 3 5 4 3 2 3 5 8 10 16 19 19 19 18 17 15 15 15 14 14 14 14 13 13 12 11 10 9 9 9 9 9 9 9 9 9 9 9 9
7 7 7 6 4 2 3 2 1 2 5 5 4 1 1 4 6 8 12 19 19 18 17 18 18 16 15 15 14 14 14 13 13 12 11 11 10 9 9 8 8 9 9 9 9 9 9 9 9
6 7 7 8 3 3 2 2 0 4 5 5 4 4 4 4 4 8 16 20 20 18 17 19 17 16 15 15 14 14 14 13 12 11 11 10 9 9 8 8 8 8 8 8 8 9 8 8 7
7 6 8 6 2 3 1 3 2 4 4 5 5 4 5 4 6 13 18 19 19 18 17 20 17 17 15 15 14 14 13 13 12 11 10 9 9 9 8 8 8 8 8 8 8 7 7 7 6
6 6 7 3 3 2 2 2 2 3 3 3 4 4 6 5 10 15 18 18 18 18 17 19 17 16 16 15 14 14 13 12 11 11 10 9 8 8 7 7 7 7 7 7 7 7 6 6 5
7 6 4 1 1 2 3 2 1 1 3 3 2 4 7 8 11 14 16 16 17 17 16 17 17 16 15 14 14 13 12 12 11 10 9 8 7 7 6 6 6 6 6 5 5 5 5 5 4
6 6 4 2 2 1 3 0 1 2 2 2 3 3 7 11 12 14 14 15 15 15 15 15 15 15 14 13 13 13 12 11 10 9 8 7 7 7 6 7 6 5 5 5 4 4 4 4 3
6 7 2 1 2 2 2 1 1 0 2 3 2 1 7 14 15 14 14 14 14 13 13 14 14 13 12 12 13 13 12 10 10 10 9 8 7 7 7 6 6 4 4 4 3 3 3 3 5
6 5 3 4 5 5 2 4 2 4 5 5 4 5 11 14 15 15 16 16 16 14 13 11 12 11 10 9 10 8 9 9 8 7 8 6 3 2 2 9 5 3 3 4 3 3 5 7 5
5 5 4 3 4 6 5 3 3 6 5 3 4 8 12 14 14 14 14 15 15 14 12 11 10 10 9 6 7 5 4 6 6 6 5 3 3 3 3 3 5 5 5 4 5 5 3 3 1
5 4 5 5 4 5 5 3 3 4 3 2 2 8 12 13 14 14 14 13 13 13 12 10 10 9 8 6 5 5 5 4 5 6 5 4 2 2 2 1 1 2 2 1 2 1 1 1 2
8 5 3 3 3 3 4 3 2 1 0 2 5 8 11 11 11 10 11 11 12 12 12 11 10 9 8 6 5 5 5 5 5 4 3 3 3 2 2 1 1 1 1 2 2 1 1 2 2
3 5 5 4 3 3 3 2 2 1 2 4 6 7 9 10 11 10 10 10 11 11 11 11 11 10 9 7 5 4 4 4 4 4 3 2 2 2 2 2 1 1 1 1 1 1 2 1 1
6 7 6 4 3 2 5 4 2 3 3 5 6 6 7 7 9 10 9 10 10 10 11 10 10 10 9 8 7 5 4 4 4 3 3 2 2 2 1 1 2 1 1 2 2 2 2 3 3
8 9 5 3 2 2 7 3 4 4 4 5 5 6 7 7 8 9 9 9 9 10 11 10 9 10 9 7 6 4 4 4 3 3 3 3 2 2 2 1 1 1 1 2 2 2 2 2 2
8 6 5 1 2 2 5 3 3 3 4 5 6 7 7 7 8 8 9 10 10 10 10 10 9 10 9 8 6 5 4 4 4 4 3 4 3 3 2 1 2 2 1 1 2 1 2 1 2
7 8 6 4 1 4 5 2 3 4 4 5 6 7 8 8 8 8 9 9 9 10 9 9 9 9 9 7 6 5 5 4 4 3 3 4 4 3 2 3 2 2 1 1 0 0 1 2 2
8 8 7 4 1 4 4 2 3 5 5 5 6 7 7 7 8 8 10 10 10 10 10 9 9 9 7 6 6 6 5 5 4 4 5 5 4 4 2 1 3 2 1 0 1 2 2 2 2
8 8 5 1 1 5 4 4 4 7 6 6 7 7 8 8 9 9 10 10 10 10 10 10 10 9 8 6 4 4 4 4 4 4 4 4 4 4 4 1 2 2 1 1 1 2 3 2 1
8 8 7 4 2 5 5 4 7 8 7 7 8 8 9 10 11 12 12 11 11 11 10 9 10 9 8 8 6 5 5 4 5 5 5 4 4 4 2 3 2 1 3 1 1 2 3 3 2
7 3 4 4 6 2 4 4 5 8 9 9 9 10 11 11 11 11 11 11 11 11 10 9 9 9 8 8 7 8 6 5 5 4 4 5 4 4 3 3 2 2 1 0 3 0 2 4 4
3 0 4 5 6 5 4 6 4 7 8 10 11 12 12 12 12 12 12 12 11 11 11 10 9 9 8 7 7 7 6 5 5 4 5 5 5 4 4 3 2 2 1 0 2 1 3 3 4
4 4 5 7 7 5 1 5 1 4 6 10 13 13 13 13 13 13 12 12 12 11 11 11 10 9 9 9 8 7 6 6 6 6 6 6 5 4 5 4 2 2 1 1 1 2 2 3 3
8 7 5 5 4 2 2 5 2 2 5 8 13 15 15 14 14 14 14 14 13 13 12 12 12 11 10 10 8 8 7 7 7 7 6 5 5 5 5 4 3 3 2 2 2 2 2 3 3
8 8 6 6 6 3 3 3 3 3 5 7 11 14 16 15 14 15 15 14 14 14 14 13 12 11 11 10 9 8 8 7 6 6 5 5 4 3 5 5 4 4 3 3 2 3 3 2 4
6 7 6 8 7 6 1 1 3 6 7 9 11 14 16 16 16 16 15 15 15 15 14 14 13 12 12 11 10 9 9 6 5 6 6 5 4 4 6 5 5 5 4 3 4 3 3 3 5
7 5 4 7 6 6 3 2 1 5 8 11 13 14 16 16 17 16 16 15 15 14 14 13 13 12 12 12 11 9 9 8 7 7 6 5 5 5 6 6 6 5 5 5 5 5 4 4 5
8 8 8 7 6 8 5 2 4 1 4 9 13 14 15 17 17 16 15 15 15 14 14 14 13 13 12 12 11 10 10 10 9 8 8 7 7 7 7 6 6 6 6 5 5 6 4 6 6
10 10 9 8 7 7 8 2 6 1 3 6 9 12 14 15 15 16 16 15 15 15 15 14 14 14 13 13 12 11 10 10 10 9 9 8 8 8 8 7 7 7 7 6 6 7 6 7 7
Wind_Direction
182 195 221 239 238 231 125 98 75 121 125 119 139 169 165 108 47 82 118 150 149 148 142 149 147 145 142 138 136 135 135 134 134 131 129 126 124 121 117 112 108 103 99 96 95 96 97 97 99
186 199 228 240 255 220 123 113 121 65 98 130 145 154 142 95 63 105 141 149 151 148 146 152 146 146 143 140 137 136 135 134 132 131 128 125 123 120 117 113 109 104 102 99 97 97 97 98 98
195 229 255 248 253 306 75 85 55 114 146 165 153 131 64 91 117 133 146 152 152 147 147 142 149 148 146 143 140 138 136 135 134 133 131 128 126 121 117 112 108 104 102 100 99 97 96 98 99
215 224 235 248 216 61 6 10 182 172 165 180 174 133 100 64 124 142 147 155 151 149 151 142 153 151 150 146 143 141 139 138 138 136 134 132 129 123 115 110 106 104 102 99 98 98 98 98 100
239 251 237 222 147 79 25 358 218 198 166 178 189 137 106 84 126 143 151 156 154 154 150 146 156 154 153 151 148 146 144 143 142 139 137 134 128 121 116 113 109 107 105 102 100 99 98 98 97
234 244 244 210 116 100 70 51 208 198 166 161 180 145 95 112 139 148 155 160 158 155 152 145 156 156 156 155 153 150 148 147 145 142 140 138 132 127 124 120 115 111 108 107 107 106 104 99 95
269 264 268 282 134 143 64 26 266 224 180 159 176 150 118 137 143 151 155 160 160 158 153 152 159 160 159 158 156 154 152 150 148 145 144 142 137 134 132 125 122 120 117 116 118 119 115 108 102
285 268 228 211 241 106 85 69 20 282 129 106 211 187 139 147 150 153 156 161 163 161 158 158 162 160 164 162 160 157 155 153 149 148 149 147 149 150 148 161 134 132 128 128 127 129 128 125 116
259 253 235 352 306 32 71 269 121 247 166 170 199 24 116 144 151 156 161 164 165 164 162 165 161 162 168 164 155 161 159 155 159 161 158 178 182 165 172 124 123 147 144 143 139 135 147 176 161
246 269 26 2 324 322 332 296 287 227 208 192 165 120 134 153 159 165 170 170 168 168 170 168 163 162 170 165 154 169 171 160 180 160 169 184 151 154 140 115 139 151 151 163 153 156 193 231 193
246 289 341 319 318 311 291 278 269 260 240 217 185 155 157 164 168 173 176 174 169 169 171 167 165 165 171 158 162 170 166 157 168 159 166 157 169 170 170 153 162 174 186 196 164 200 226 239 277
252 272 289 299 314 296 299 287 260 275 321 6 161 162 165 172 175 176 176 174 169 170 170 168 164 167 168 163 163 170 168 165 160 154 176 163 174 179 147 184 150 188 180 177 217 204 200 263 250
241 269 275 270 273 293 281 273 278 290 40 128 144 163 170 170 170 170 169 167 167 169 168 166 166 164 163 161 177 169 166 163 147 148 163 174 181 185 160 139 178 229 186 191 204 207 191 218 229
281 275 267 260 259 233 240 223 217 115 133 147 152 164 170 169 165 163 166 168 169 168 166 162 168 165 163 162 165 162 165 154 148 148 144 180 182 157 170 178 180 202 219 234 214 196 215 226 240
255 256 239 210 212 200 245 221 162 126 146 156 161 166 164 161 163 168 171 166 166 165 162 164 167 165 167 166 169 165 160 154 144 136 139 170 177 146 183 160 180 155 181 172 201 206 211 219 224
235 244 248 144 217 196 256 290 105 142 170 167 163 164 161 163 168 169 170 164 164 164 163 166 171 163 164 164 164 161 154 144 144 150 152 163 157 163 199 170 134 138 198 196 177 224 220 232 253
219 275 317 107 185 230 256 302 124 163 184 174 166 166 170 169 174 168 166 165 164 165 165 166 168 163 162 161 163 158 146 146 157 162 154 149 158 165 196 147 99 198 195 211 241 144 274 257 278
319 318 316 324 136 248 262 273 149 164 187 180 172 171 176 178 179 168 160 160 161 163 163 165 166 161 161 160 155 151 150 157 164 156 142 155 160 167 186 162 144 221 188 181 273 359 282 291 285
299 299 307 338 29 261 271 263 171 166 182 178 178 178 181 176 170 166 163 163 162 165 164 166 166 164 167 164 165 161 161 162 161 158 149 165 162 154 196 182 147 226 177 269 247 268 233 262 304
273 281 292 306 190 266 275 256 174 169 179 181 185 181 178 176 168 169 169 168 169 169 169 168 168 168 171 161 154 155 149 163 154 149 147 167 165 174 182 190 200 183 183 197 255 277 297 303 294
273 290 308 307 252 229 262 218 171 171 179 183 187 185 179 177 172 169 171 172 171 172 178 174 167 168 171 162 158 153 150 165 163 165 164 165 168 174 181 179 243 200 245 180 252 265 274 296 289
279 320 288 264 261 270 270 296 152 173 181 186 184 180 176 175 173 171 175 177 178 177 175 171 168 169 168 169 173 175 178 176 169 178 158 161 172 175 174 186 196 242 273 122 245 231 287 285 284
310 313 250 253 267 272 228 282 120 167 189 187 183 180 176 175 174 176 180 180 180 178 175 173 168 168 168 174 174 184 185 175 170 173 154 177 165 177 180 184 188 207 245 312 333 328 292 287 299
163 196 213 230 249 264 349 284 88 157 192 181 179 178 177 175 175 176 178 177 179 179 175 172 171 172 173 179 181 192 183 183 175 182 171 188 174 177 173 180 186 210 216 180 227 261 243 301 318
214 245 251 238 240 344 77 274 8 113 175 177 174 176 177 177 177 177 177 177 176 177 176 175 175 175 177 182 185 190 189 187 186 193 185 203 185 180 169 181 187 196 190 207 229 235 283 265 269
225 260 285 306 318 332 174 276 55 118 159 172 172 173 176 179 179 178 179 178 178 179 178 178 179 179 179 183 187 189 192 196 187 194 197 194 201 179 157 180 189 197 203 210 213 245 229 240 254
222 244 293 285 282 284 288 243 166 159 171 177 175 176 179 181 181 182 182 183 182 182 183 184 183 183 185 185 183 187 193 199 183 175 199 191 184 174 176 188 192 194 199 214 226 242 243 235 247
271 260 235 268 290 289 278 257 105 162 178 180 182 182 182 183 184 185 184 186 186 187 186 187 187 189 188 186 189 186 189 189 186 191 187 184 183 184 187 194 196 198 200 208 230 233 217 238 242
197 217 242 265 282 289 297 16 64 149 186 186 186 186 185 186 186 185 185 186 186 188 187 187 189 190 191 191 191 188 188 188 190 192 189 186 189 187 196 199 203 207 212 215 224 248 234 239 245
242 241 232 251 251 255 282 324 93 130 186 187 188 185 186 187 187 186 185 186 189 190 190 189 191 192 192 190 188 190 190 190 194 193 192 189 190 194 197 203 209 216 218 220 227 241 244 244 247